Location: Bucquoy
(50.1391°N, 2.7097°E)
Time: 03:42:35
(UTC+00:00)

Cosmos 1934 Rocket - Pass Details

Date: 06 May 2021
Orbit: 937 x 1000 km, 83.0° (Epoch: 22 June)

Event Time Altitude Azimuth Distance (km) Brightness Sun altitude
Rises 00:41:23 0° 350° (N) 3,681 8.1 -22.2°
Reaches altitude 10° 00:43:55 10° 350° (N) 2,720 7.2 -22.1°
Maximum altitude 00:50:10 89° 84° (E) 964 3.9 -21.8°
Enters shadow 00:52:39 39° 171° (S) 1,398 4.4 -21.7°
